SCP
0 0 0 0 -0 -0 0 -0 -0 -0 -0 -0 0 0 0 0 -0 -0 0 -0 -0 -0 -0 -0 -0 -0 -0 0 0 0 0 0 0 0 0 0 0 0 0 0 0 0 0
-0 0 0 -0 0 -0 0 0 0 0 -0 -0 -0 -0 0 -0 -0 -0 -0 0 -0 -0 -0 -0 -0 -0 -0 0 0 -0 0 0 0 -0 0 0 0 0 0 0 0 0 0
-0 0 0 -0 0 0 0 0 0 0 0 0 0 0 -0 0 0 -0 -0 -0 0 -0 -0 -0 -0 -0 -0 -0 -0 0 0 -0 -0 -0 0 0 0 0 0 0 0 0 0
-0 -0 -0 0 0 0 0 0 -0 0 0 -0 0 0 0 0 -0 -0 -0 -0 -0 0 -0 -0 -0 -0 -0 -0 0 -0 -0 -0 -0 -0 -0 0 0 0 0 0 0 0 0
-0 -0 -0 0 0 0 0 0 -0 0 0 0 0 0 0 0 0 -0 -0 0 0 0 0 0 -0 -0 -0 -0 -0 -0 -0 -0 -0 -0 0 0 -0 0 -0 0 0 -0 -0
-0 -0 -0 -0 -0 0 0 0 0 0 0 -0 -0 0 0 0 0 0 0 0 -0 0 0 0 0 0 -0 -0 -0 -0 -0 -0 -0 -0 -0 -0 -0 -0 -0 -0 -0 -0 -0
-0 0 -0 -0 -0 -0 0 -0 0 0 0 0 -0 -0 0 0 0 -0 0 0 0 -0 0 0 0 0 0 -0 -0 -0 -0 -0 -0 -0 -0 -0 -0 -0 -0 -0 -0 -0 -0
0 -0 -0 -0 -0 -0 0 0 0 0 0 -0 -0 0 -0 0 0 0 -0 -0 -0 -0 -0 -0 0 0 0 0 -0 -0 -0 -0 -0 -0 -0 -0 -0 -0 -0 -0 -0 -0 -0
0 0 -0 0 -0 -0 0 0 0 0 0 0 0 -0 0 0 0 0 0 0 0 -0 -0 0 -0 0 -0 -0 -0 -0 -0 -0 -0 -0 -0 -0 -0 -0 -0 -0 -0 -0 -0
0 -0 -0 0 0 0 0 0 0 0 0 0 0 0 0 0 0 0 0 0 -0 0 -0 -0 0 -0 -0 -0 -0 -0 -0 -0 -0 -0 -0 -0 -0 -0 -0 -0 -0 -0 -0
0 -0 -0 0 0 -0 -0 0 0 0 0 0 0 0 0 0 0 0 0 0 0 0 0 0 0 0 -0 -0 0 -0 -0 -0 -0 -0 -0 -0 -0 -0 -0 -0 -0 -0 -0
-0 -0 -0 -0 -0 -0 -0 -0 -0 -0 0 0 0 0 0 0 0 0 0 0 0 0 0 0 0 0 0 0 0 -0 -0 -0 -0 -0 -0 -0 -0 -0 -0 -0 -0 -0 -0
-0 -0 -0 -0 -0 -0 -0 -0 -0 -0 0 0 0 0 0 0 0 0 0 0 0 0 0 0 0 0 0 0 0 0 -0 -0 -0 -0 -0 -0 -0 -0 -0 -0 -0 -0 -0
0 0 0 0 -0 -0 -0 -0 -0 -0 -0 0 0 0 0 -0 0 0 0 0 0 0 0 0 0 0 0 0 0 0 0 0 -0 -0 -0 -0 -0 -0 -0 -0 -0 -0 -0
0 0 0 0 0 -0 -0 -0 -0 -0 -0 0 0 0 0 -0 -0 -0 0 0 0 0 0 0 0 0 0 0 0 0 0 0 -0 0 -0 -0 -0 0 0 0 0 0 0
0 0 0 0 0 0 0 0 -0 0 0 0 0 0 0 0 0 0 0 0 0 0 0 0 0 0 0 0 0 0 0 0 -0 -0 0 0 0 0 0 0 0 0 0
0 0 0 0 0 0 0 0 -0 -0 0 0 0 0 0 0 0 0 0 0 0 0 0 0 0 0 0 0 0 0 0 0 0 0 0 0 0 0 0 0 0 0 0
0 0 0 0 0 0 0 0 0 -0 -0 0 0 0 0 0 0 0 0 0 0 0 0 0 0 0 0 0 0 0 0 0 0 0 0 0 0 0 0 0 0 0 0
0 0 0 0 0 0 0 0 0 0 0 0 0 0 0 0 0 0 0 0 0 0 0 0 0 0 0 0 0 0 0 0 0 0 0 0 0 0 0 0 0 0 0
0 0 0 0 0 0 0 0 0 0 0 0 0 0 0 0 0 0 0 0 0 0 0 0 0 0 0 0 0 0 0 0 0 0 0 0 0 0 0 0 0 0 0
1 0 0 0 0 0 0 0 0 0 0 0 0 0 0 0 0 0 0 0 0 0 0 0 0 0 0 0 0 0 0 0 0 0 0 0 0 0 0 0 0 0 0
0 1 1 0 0 0 0 0 0 0 0 0 0 0 0 0 0 0 -0 0 0 0 0 0 0 0 0 0 0 0 0 0 0 0 0 0 0 0 0 0 0 0 0
0 0 1 1 1 1 0 0 0 1 0 0 0 0 0 0 0 0 0 0 0 0 0 0 -0 0 0 0 0 0 0 0 0 0 0 0 0 0 0 0 0 0 0
0 2 0 0 0 0 0 0 0 0 0 0 0 0 0 0 0 0 0 0 0 0 0 0 0 0 0 0 0 0 0 0 0 0 0 0 0 0 0 0 0 0 0
0 0 0 0 0 -0 -0 0 0 0 0 0 0 0 0 0 0 0 0 0 0 0 0 0 0 0 0 0 0 0 0 0 0 0 0 0 0 0 0 0 0 0 0
0 0 0 0 0 0 0 -0 0 0 0 0 0 0 0 0 0 0 0 0 0 0 0 0 0 0 0 0 0 0 0 0 0 0 0 0 0 0 0 0 0 0 0
Wind_Speed_500mb
17 21 10 12 23 18 15 17 22 20 24 9 11 20 25 28 27 26 22 22 23 16 18 20 25 27 29 31 33 28 26 26 24 21 19 20 20 21 20 18 17 17 18
18 13 13 19 21 23 19 23 20 19 14 16 18 19 18 19 16 22 24 24 20 15 17 18 21 24 29 32 30 27 28 26 23 19 18 20 21 20 18 17 17 18 18
13 7 20 9 28 31 24 25 21 19 19 20 19 21 26 21 17 21 23 23 21 15 19 17 19 23 22 22 23 24 25 25 24 21 21 23 24 20 17 16 17 18 17
17 9 23 20 24 25 26 22 19 15 18 21 20 23 25 27 21 24 25 20 16 13 18 19 19 17 18 19 22 24 25 24 23 25 23 25 21 18 16 16 16 16 15
22 16 17 25 24 26 31 26 18 11 10 12 14 21 20 26 22 20 24 20 15 15 10 13 17 18 18 19 19 20 21 24 24 23 23 22 18 16 16 16 15 14 13
26 14 24 21 22 27 28 18 14 16 16 8 12 18 24 25 21 21 21 20 19 18 18 16 14 17 17 17 16 17 18 19 22 23 21 18 17 17 16 16 16 14 13
24 21 21 16 21 26 23 19 19 20 16 20 24 36 31 33 32 18 29 24 16 24 24 19 18 17 15 14 14 16 17 18 19 18 18 17 17 17 17 17 17 15 14
27 27 29 27 32 31 26 27 22 17 21 24 26 21 23 32 36 32 31 27 32 30 31 25 22 20 19 18 15 15 16 15 17 17 15 16 16 17 17 17 17 16 15
28 27 27 28 29 35 35 26 29 26 26 26 25 19 13 12 20 30 31 24 21 29 31 28 26 24 22 21 19 19 19 15 15 17 16 15 16 17 17 16 16 16 16
35 31 30 29 38 33 35 28 29 28 28 27 17 21 15 12 5 12 29 25 22 18 19 19 26 34 26 20 20 18 17 17 12 12 15 13 14 15 16 16 16 16 17
40 38 34 35 39 41 37 31 30 27 30 26 18 11 9 4 2 6 7 17 6 15 20 17 10 16 21 20 17 17 14 11 13 13 15 16 16 17 17 17 17 17 17
42 38 35 34 33 45 38 33 28 29 30 24 18 13 11 7 3 4 0 13 6 9 18 20 22 11 13 17 18 16 17 21 21 19 21 21 20 23 23 22 22 22 22
52 46 44 45 42 43 40 37 42 39 31 31 25 20 16 8 5 5 5 6 5 5 5 14 17 22 26 21 15 17 17 15 15 19 23 26 24 26 28 28 27 27 28
49 51 47 47 50 49 47 44 45 43 42 38 36 32 27 23 18 12 12 11 11 13 16 17 19 19 21 29 23 20 19 20 20 22 26 26 25 22 21 26 30 31 32
50 54 55 52 51 54 54 50 49 43 45 45 40 40 41 36 32 26 24 22 19 17 19 14 17 21 19 28 28 27 26 21 20 19 25 24 27 27 26 25 26 31 36
51 55 59 61 59 61 57 58 55 50 48 49 47 47 46 44 40 36 34 31 28 25 26 23 16 14 15 20 24 34 34 31 29 21 24 27 27 27 28 31 33 35 36
53 57 61 62 64 66 66 63 63 62 59 54 53 51 50 47 43 40 35 36 35 32 31 29 18 17 17 15 14 20 28 33 25 28 31 30 33 36 35 36 39 40 45
60 60 61 65 69 69 70 72 69 65 64 61 57 56 57 53 49 46 42 40 40 38 39 38 35 29 27 27 31 33 36 42 45 44 42 42 38 39 41 41 43 47 49
72 65 64 66 65 70 74 68 68 69 65 60 60 63 58 58 58 53 49 44 45 45 43 42 45 44 43 39 42 40 36 38 40 41 45 46 46 49 52 53 49 53 53
71 74 72 70 69 66 71 75 72 65 65 65 59 58 61 62 60 59 56 55 53 47 49 48 47 49 50 44 45 42 42 42 42 37 35 34 40 43 47 49 53 54 51
69 67 71 75 71 68 68 72 74 67 63 66 61 58 59 63 65 59 55 53 47 49 49 52 52 51 51 46 49 42 41 37 40 42 43 42 46 48 49 45 46 51 50
82 71 71 74 76 75 69 69 71 70 69 67 64 59 58 63 62 63 62 59 56 54 53 52 53 52 47 44 46 43 40 44 49 46 41 38 39 36 43 46 45 43 42
66 76 71 66 65 69 68 66 66 67 68 64 62 58 57 57 58 59 58 56 56 56 59 57 58 55 53 46 44 46 49 47 48 44 45 45 39 41 42 39 38 41 42
48 52 49 35 35 40 61 58 66 63 63 60 60 59 57 57 55 54 56 57 62 63 64 60 59 55 51 45 44 43 42 45 45 43 44 44 41 40 37 36 37 34 29
44 38 38 71 80 71 52 57 35 65 60 54 55 56 56 56 58 55 57 58 60 61 61 58 56 57 52 47 43 44 47 49 51 49 43 38 41 37 34 32 28 18 13
43 34 24 29 39 60 32 81 85 57 45 43 48 60 56 54 54 55 57 55 56 58 53 53 50 52 48 47 47 49 48 51 49 47 44 35 33 26 17 15 10 13 14
Wind_Direction_500mb
196 190 210 229 196 183 182 181 173 165 161 160 169 205 217 219 234 241 243 247 252 247 243 238 239 241 248 253 258 256 255 249 247 249 257 267 273 278 276 273 275 274 266
186 209 228 251 185 172 167 148 162 170 176 170 175 195 218 236 228 234 233 234 249 250 238 234 239 239 248 254 257 254 251 251 255 260 265 273 278 276 275 272 274 271 264
186 201 219 191 177 161 158 158 151 159 167 174 194 211 220 228 232 221 222 227 235 242 240 230 227 236 245 251 256 257 257 258 258 261 267 269 269 260 270 276 281 280 266
198 115 149 157 165 163 168 168 170 168 189 206 220 229 223 229 237 224 225 216 219 234 226 223 222 232 239 246 255 258 256 254 263 267 268 271 269 267 271 277 280 280 264
204 185 164 166 172 169 170 172 182 202 255 231 243 234 233 220 227 236 227 221 222 236 235 230 221 224 234 237 247 254 256 254 260 265 264 264 261 260 264 268 274 275 264
212 210 184 191 190 171 177 196 213 210 211 228 265 235 233 231 237 238 222 230 227 236 239 239 247 231 227 242 244 251 257 261 259 255 256 256 259 263 266 267 272 272 260
217 205 195 207 196 186 191 225 217 229 212 205 260 248 250 238 235 242 235 235 219 235 237 234 241 232 225 227 248 254 261 264 264 265 262 258 258 262 266 267 268 268 260
222 219 230 236 219 215 209 222 211 210 233 244 247 247 262 254 245 243 230 232 249 234 225 223 227 228 226 234 247 256 256 262 267 268 267 266 264 265 268 268 269 267 262
221 224 228 228 226 211 211 223 218 223 244 246 255 241 251 241 237 221 220 236 242 231 223 226 229 231 231 233 237 246 254 258 269 271 260 259 261 263 263 264 265 266 261
225 222 225 224 209 211 225 230 231 233 228 244 238 259 286 249 244 194 214 217 223 213 201 227 237 233 235 230 228 230 237 240 248 273 277 267 264 265 268 269 268 266 265
232 224 218 222 223 228 222 236 235 234 220 239 246 268 239 200 104 66 159 197 234 235 217 195 195 212 223 217 202 206 218 232 249 255 265 265 268 268 268 272 274 274 274
227 220 219 224 233 226 233 222 225 222 227 235 231 248 244 248 32 267 263 187 288 224 215 224 232 222 220 207 215 222 239 253 263 271 270 265 263 265 267 268 268 270 272
227 229 234 231 231 226 223 226 235 230 231 235 235 239 236 248 257 293 269 251 279 297 229 236 258 254 247 243 251 250 244 253 262 274 276 267 262 263 264 266 269 271 272
235 235 238 236 236 234 233 234 233 230 233 236 235 232 236 238 244 261 268 261 267 267 260 262 262 271 255 245 242 248 253 243 250 272 282 267 264 267 276 270 269 272 274
242 240 237 242 240 237 239 239 239 236 231 233 234 239 240 242 244 248 253 258 264 271 281 263 280 279 283 236 239 252 237 234 249 283 280 274 268 267 271 273 274 271 272
245 240 238 239 243 242 241 242 242 240 237 236 242 245 243 242 242 243 247 252 262 267 272 292 264 283 265 251 262 241 243 246 248 255 271 277 272 265 271 269 271 272 273
249 245 243 242 243 242 242 243 244 242 244 244 242 243 241 240 242 239 242 250 252 257 269 269 281 260 252 258 248 253 266 252 245 256 266 269 264 259 273 272 271 270 270
251 250 247 247 243 240 241 243 244 244 242 245 242 244 245 241 243 240 250 249 253 256 258 260 263 261 267 264 266 266 264 252 255 258 264 261 264 264 268 272 274 275 279
257 250 246 242 241 240 238 240 242 243 244 246 247 244 247 246 248 247 248 255 261 262 262 263 265 269 271 273 272 268 264 263 266 268 265 265 266 270 273 272 277 280 279
266 252 246 244 242 242 240 237 240 242 242 247 250 248 247 246 248 250 254 260 265 262 260 264 265 266 272 270 268 269 266 267 270 268 265 262 270 278 281 281 279 281 282
263 258 252 246 243 243 241 237 237 240 244 246 249 252 254 247 247 251 251 257 257 265 265 261 262 264 266 270 265 272 272 276 274 271 274 273 274 277 281 285 287 288 285
260 255 252 250 244 241 242 240 240 242 243 247 247 252 255 252 252 250 250 256 259 262 261 261 261 263 266 269 268 269 272 276 282 276 278 276 278 280 287 288 288 287 288
257 255 253 256 254 251 247 247 245 246 246 245 247 252 251 251 253 254 249 253 256 260 259 259 259 261 269 274 273 270 269 271 273 276 277 280 279 286 288 287 286 289 289
325 264 255 291 293 241 238 245 248 247 245 250 252 251 251 247 247 248 249 254 258 257 256 253 260 265 268 272 270 270 268 270 271 276 280 275 286 290 286 286 290 291 294
319 311 285 255 274 288 300 325 302 250 244 245 250 252 254 254 246 242 249 251 256 253 251 253 259 262 268 269 273 267 270 273 273 273 272 276 284 285 285 287 286 286 298
314 310 307 288 272 242 290 270 297 253 249 248 265 260 247 253 257 245 242 252 258 252 253 254 253 264 266 267 265 270 274 275 278 276 273 275 273 272 287 285 282 292 302
Wind_Speed_850mb
17 21 10 12 23 18 15 17 22 20 24 9 11 20 25 28 27 26 22 22 23 16 18 20 25 27 29 31 33 28 26 26 24 21 19 20 20 21 20 18 17 17 18
18 13 13 19 21 23 19 23 20 19 14 16 18 19 18 19 16 22 24 24 20 15 17 18 21 24 29 32 30 27 28 26 23 19 18 20 21 20 18 17 17 18 18
13 7 20 9 28 31 24 25 21 19 19 20 19 21 26 21 17 21 23 23 21 15 19 17 19 23 22 22 23 24 25 25 24 21 21 23 24 20 17 16 17 18 17
17 9 23 20 24 25 26 22 19 15 18 21 20 23 25 27 21 24 25 20 16 13 18 19 19 17 18 19 22 24 25 24 23 25 23 25 21 18 16 16 16 16 15
22 16 17 25 24 26 31 26 18 11 10 12 14 21 20 26 22 20 24 20 15 15 10 13 17 18 18 19 19 20 21 24 24 23 23 22 18 16 16 16 15 14 13
26 14 24 21 22 27 28 18 14 16 16 8 12 18 24 25 21 21 21 20 19 18 18 16 14 17 17 17 16 17 18 19 22 23 21 18 17 17 16 16 16 14 13
24 21 21 16 21 26 23 19 19 20 16 20 24 36 31 33 32 18 29 24 16 24 24 19 18 17 15 14 14 16 17 18 19 18 18 17 17 17 17 17 17 15 14
27 27 29 27 32 31 26 27 22 17 21 24 26 21 23 32 36 32 31 27 32 30 31 25 22 20 19 18 15 15 16 15 17 17 15 16 16 17 17 17 17 16 15
28 27 27 28 29 35 35 26 29 26 26 26 25 19 13 12 20 30 31 24 21 29 31 28 26 24 22 21 19 19 19 15 15 17 16 15 16 17 17 16 16 16 16
35 31 30 29 38 33 35 28 29 28 28 27 17 21 15 12 5 12 29 25 22 18 19 19 26 34 26 20 20 18 17 17 12 12 15 13 14 15 16 16 16 16 17
40 38 34 35 39 41 37 31 30 27 30 26 18 11 9 4 2 6 7 17 6 15 20 17 10 16 21 20 17 17 14 11 13 13 15 16 16 17 17 17 17 17 17
42 38 35 34 33 45 38 33 28 29 30 24 18 13 11 7 3 4 0 13 6 9 18 20 22 11 13 17 18 16 17 21 21 19 21 21 20 23 23 22 22 22 22
52 46 44 45 42 43 40 37 42 39 31 31 25 20 16 8 5 5 5 6 5 5 5 14 17 22 26 21 15 17 17 15 15 19 23 26 24 26 28 28 27 27 28
49 51 47 47 50 49 47 44 45 43 42 38 36 32 27 23 18 12 12 11 11 13 16 17 19 19 21 29 23 20 19 20 20 22 26 26 25 22 21 26 30 31 32
50 54 55 52 51 54 54 50 49 43 45 45 40 40 41 36 32 26 24 22 19 17 19 14 17 21 19 28 28 27 26 21 20 19 25 24 27 27 26 25 26 31 36
51 55 59 61 59 61 57 58 55 50 48 49 47 47 46 44 40 36 34 31 28 25 26 23 16 14 15 20 24 34 34 31 29 21 24 27 27 27 28 31 33 35 36
53 57 61 62 64 66 66 63 63 62 59 54 53 51 50 47 43 40 35 36 35 32 31 29 18 17 17 15 14 20 28 33 25 28 31 30 33 36 35 36 39 40 45
60 60 61 65 69 69 70 72 69 65 64 61 57 56 57 53 49 46 42 40 40 38 39 38 35 29 27 27 31 33 36 42 45 44 42 42 38 39 41 41 43 47 49
72 65 64 66 65 70 74 68 68 69 65 60 60 63 58 58 58 53 49 44 45 45 43 42 45 44 43 39 42 40 36 38 40 41 45 46 46 49 52 53 49 53 53
71 74 72 70 69 66 71 75 72 65 65 65 59 58 61 62 60 59 56 55 53 47 49 48 47 49 50 44 45 42 42 42 42 37 35 34 40 43 47 49 53 54 51
69 67 71 75 71 68 68 72 74 67 63 66 61 58 59 63 65 59 55 53 47 49 49 52 52 51 51 46 49 42 41 37 40 42 43 42 46 48 49 45 46 51 50
82 71 71 74 76 75 69 69 71 70 69 67 64 59 58 63 62 63 62 59 56 54 53 52 53 52 47 44 46 43 40 44 49 46 41 38 39 36 43 46 45 43 42
66 76 71 66 65 69 68 66 66 67 68 64 62 58 57 57 58 59 58 56 56 56 59 57 58 55 53 46 44 46 49 47 48 44 45 45 39 41 42 39 38 41 42
48 52 49 35 35 40 61 58 66 63 63 60 60 59 57 57 55 54 56 57 62 63 64 60 59 55 51 45 44 43 42 45 45 43 44 44 41 40 37 36 37 34 29
44 38 38 71 80 71 52 57 35 65 60 54 55 56 56 56 58 55 57 58 60 61 61 58 56 57 52 47 43 44 47 49 51 49 43 38 41 37 34 32 28 18 13
43 34 24 29 39 60 32 81 85 57 45 43 48 60 56 54 54 55 57 55 56 58 53 53 50 52 48 47 47 49 48 51 49 47 44 35 33 26 17 15 10 13 14
Wind_Direction_850mb
196 190 210 229 196 183 182 181 173 165 161 160 169 205 217 219 234 241 243 247 252 247 243 238 239 241 248 253 258 256 255 249 247 249 257 267 273 278 276 273 275 274 266
186 209 228 251 185 172 167 148 162 170 176 170 175 195 218 236 228 234 233 234 249 250 238 234 239 239 248 254 257 254 251 251 255 260 265 273 278 276 275 272 274 271 264
186 201 219 191 177 161 158 158 151 159 167 174 194 211 220 228 232 221 222 227 235 242 240 230 227 236 245 251 256 257 257 258 258 261 267 269 269 260 270 276 281 280 266
198 115 149 157 165 163 168 168 170 168 189 206 220 229 223 229 237 224 225 216 219 234 226 223 222 232 239 246 255 258 256 254 263 267 268 271 269 267 271 277 280 280 264
204 185 164 166 172 169 170 172 182 202 255 231 243 234 233 220 227 236 227 221 222 236 235 230 221 224 234 237 247 254 256 254 260 265 264 264 261 260 264 268 274 275 264
212 210 184 191 190 171 177 196 213 210 211 228 265 235 233 231 237 238 222 230 227 236 239 239 247 231 227 242 244 251 257 261 259 255 256 256 259 263 266 267 272 272 260
217 205 195 207 196 186 191 225 217 229 212 205 260 248 250 238 235 242 235 235 219 235 237 234 241 232 225 227 248 254 261 264 264 265 262 258 258 262 266 267 268 268 260
222 219 230 236 219 215 209 222 211 210 233 244 247 247 262 254 245 243 230 232 249 234 225 223 227 228 226 234 247 256 256 262 267 268 267 266 264 265 268 268 269 267 262
221 224 228 228 226 211 211 223 218 223 244 246 255 241 251 241 237 221 220 236 242 231 223 226 229 231 231 233 237 246 254 258 269 271 260 259 261 263 263 264 265 266 261
225 222 225 224 209 211 225 230 231 233 228 244 238 259 286 249 244 194 214 217 223 213 201 227 237 233 235 230 228 230 237 240 248 273 277 267 264 265 268 269 268 266 265
232 224 218 222 223 228 222 236 235 234 220 239 246 268 239 200 104 66 159 197 234 235 217 195 195 212 223 217 202 206 218 232 249 255 265 265 268 268 268 272 274 274 274
227 220 219 224 233 226 233 222 225 222 227 235 231 248 244 248 32 267 263 187 288 224 215 224 232 222 220 207 215 222 239 253 263 271 270 265 263 265 267 268 268 270 272
227 229 234 231 231 226 223 226 235 230 231 235 235 239 236 248 257 293 269 251 279 297 229 236 258 254 247 243 251 250 244 253 262 274 276 267 262 263 264 266 269 271 272
235 235 238 236 236 234 233 234 233 230 233 236 235 232 236 238 244 261 268 261 267 267 260 262 262 271 255 245 242 248 253 243 250 272 282 267 264 267 276 270 269 272 274
242 240 237 242 240 237 239 239 239 236 231 233 234 239 240 242 244 248 253 258 264 271 281 263 280 279 283 236 239 252 237 234 249 283 280 274 268 267 271 273 274 271 272
245 240 238 239 243 242 241 242 242 240 237 236 242 245 243 242 242 243 247 252 262 267 272 292 264 283 265 251 262 241 243 246 248 255 271 277 272 265 271 269 271 272 273
249 245 243 242 243 242 242 243 244 242 244 244 242 243 241 240 242 239 242 250 252 257 269 269 281 260 252 258 248 253 266 252 245 256 266 269 264 259 273 272 271 270 270
251 250 247 247 243 240 241 243 244 244 242 245 242 244 245 241 243 240 250 249 253 256 258 260 263 261 267 264 266 266 264 252 255 258 264 261 264 264 268 272 274 275 279
257 250 246 242 241 240 238 240 242 243 244 246 247 244 247 246 248 247 248 255 261 262 262 263 265 269 271 273 272 268 264 263 266 268 265 265 266 270 273 272 277 280 279
266 252 246 244 242 242 240 237 240 242 242 247 250 248 247 246 248 250 254 260 265 262 260 264 265 266 272 270 268 269 266 267 270 268 265 262 270 278 281 281 279 281 282
263 258 252 246 243 243 241 237 237 240 244 246 249 252 254 247 247 251 251 257 257 265 265 261 262 264 266 270 265 272 272 276 274 271 274 273 274 277 281 285 287 288 285
260 255 252 250 244 241 242 240 240 242 243 247 247 252 255 252 252 250 250 256 259 262 261 261 261 263 266 269 268 269 272 276 282 276 278 276 278 280 287 288 288 287 288
257 255 253 256 254 251 247 247 245 246 246 245 247 252 251 251 253 254 249 253 256 260 259 259 259 261 269 274 273 270 269 271 273 276 277 280 279 286 288 287 286 289 289
325 264 255 291 293 241 238 245 248 247 245 250 252 251 251 247 247 248 249 254 258 257 256 253 260 265 268 272 270 270 268 270 271 276 280 275 286 290 286 286 290 291 294
319 311 285 255 274 288 300 325 302 250 244 245 250 252 254 254 246 242 249 251 256 253 251 253 259 262 268 269 273 267 270 273 273 273 272 276 284 285 285 287 286 286 298
314 310 307 288 272 242 290 270 297 253 249 248 265 260 247 253 257 245 242 252 258 252 253 254 253 264 266 267 265 270 274 275 278 276 273 275 273 272 287 285 282 292 302